User: anonymous   Login
Location: Unspecified
(0.0000°N, 0.0000°E)
Time: 11:47:24
(UTC+00:00)
Language:

Interbol-2 - Orbit

View from above orbital plane
View from above orbital plane
View from above satellite
View from above satellite

Ground track
Ground track

The orbit data is extracted from the following two-line orbital elements,

1 24292U 96050B   18109.30787250 +.00000022 +00000-0 +00000-0 0  9994
2 24292 063.5175 111.9073 5282705 236.9473 303.8195 04.14705342327598
Epoch (UTC): 19 April 2018 07:23:20
Eccentricity: 0.5282705
inclination: 63.5175°
perigee height: 1341 km
apogee height: 18631 km
right ascension of ascending node: 111.9073°
argument of perigee: 236.9473°
revolutions per day: 4.14705342
mean anomaly at epoch: 303.8195°
orbit number at epoch: 32759

The dashed part of the orbit path shows where the satellite is in the earth's shadow,  

DLR